Regional Weather Roundup
Issued by NWS Goodland, KS

Home | Current Version | Previous Version | Graphics & Text | Print | Product List | Glossary On
Versions: 1 2 3 4 5 6 7 8 9 10 11 12 13 14 15 16 17 18 19 20 21 22 23 24 25 26 27 28 29 30 31 32 33 34 35 36 37 38 39 40 41 42 43 44 45 46 47 48 49 50
048
ASUS43 KGLD 230459
RWRGLD

GOODLAND FORECAST AREA HOURLY WEATHER ROUNDUP
NATIONAL WEATHER SERVICE GOODLAND KS
1100 PM MDT FRI JUL 22 2016

...OFFICIAL OBSERVATIONS...

CITY           SKY/WX    TMP DP  RH WIND       PRES   REMARKS
GOODLAND KS    MOCLDY    83  56  39 CALM      30.00R
HILL CITY KS   CLOUDY    83  64  52 S6        29.91F
IMPERIAL NEB   TSTM      72  69  90 N13       30.08R
MCCOOK NEB     CLOUDY    78  71  79 NE5       29.93R
AKRON CO       CLOUDY    72  60  66 E15       30.08R
BURLINGTON CO  CLOUDY    81  56  42 S6        30.03S
LIMON CO       CLOUDY    75  47  36 W7        30.11S
$$

...UNOFFICIAL OBSERVATIONS...

CITY           SKY/WX    TMP DP  RH WIND       PRES   REMARKS
COLBY KS       CLEAR     86  61  42 S14G20    29.97S
LENORA KS        N/A     79  32  18 MISG        N/A
NORTON KS      CLEAR     81  63  54 SE7       29.91S
$$




USA.gov is the U.S. government's official web portal to all federal, state and local government web resources and services.